Location: Bishop�s Knoyle
(51.0728°N, 2.1714°W)
Time: 07:22:13
(UTC+00:00)

BEESAT 2 - Pass Details

Date: 04 December 2021
Orbit: 498 x 513 km, 64.9° (Epoch: 20 January)

Event Time Altitude Azimuth Distance (km) Brightness Sun altitude
Exits shadow 05:52:37 32° 333° (NNW) 907 ? -18.1°
Maximum altitude 05:54:17 67° 46° (NE) 565 ? -17.8°
Drops below altitude 10° 05:58:09 10° 130° (SE) 1,739 ? -17.3°
Sets 06:00:20 0° 133° (SE) 2,619 ? -16.9°
